TimeEDT,TemperatureF,Dew PointF,Humidity,Sea Level PressureIn,VisibilityMPH,Wind Direction,Wind SpeedMPH,Gust SpeedMPH,PrecipitationIn,Events,Conditions,WindDirDegrees,DateUTC
12:56 AM,46.0,42.1,86,30.23,10.0,NNW,3.5,-,N/A,,Overcast,330,2012-10-09 04:56:00
1:56 AM,46.0,42.1,86,30.24,10.0,Calm,Calm,-,N/A,,Overcast,0,2012-10-09 05:56:00
2:56 AM,46.0,42.1,86,30.22,10.0,NNW,4.6,-,N/A,,Overcast,330,2012-10-09 06:56:00
3:56 AM,46.0,43.0,89,30.21,10.0,NNW,3.5,-,N/A,,Overcast,340,2012-10-09 07:56:00
4:56 AM,46.0,43.0,89,30.21,10.0,NW,4.6,-,N/A,,Overcast,320,2012-10-09 08:56:00
5:56 AM,46.0,43.0,89,30.21,10.0,NW,5.8,-,N/A,,Overcast,320,2012-10-09 09:56:00
6:56 AM,46.9,43.0,86,30.22,10.0,NNW,3.5,-,N/A,,Overcast,330,2012-10-09 10:56:00
7:56 AM,46.9,44.1,90,30.21,8.0,NW,4.6,-,N/A,,Overcast,320,2012-10-09 11:56:00
8:56 AM,48.0,44.1,86,30.21,8.0,NW,5.8,-,N/A,,Mostly Cloudy,310,2012-10-09 12:56:00
9:56 AM,51.1,43.0,74,30.22,10.0,Calm,Calm,-,N/A,,Overcast,0,2012-10-09 13:56:00
10:56 AM,52.0,44.1,74,30.21,10.0,Calm,Calm,-,N/A,,Overcast,0,2012-10-09 14:56:00
11:56 AM,55.0,45.0,69,30.19,9.0,Calm,Calm,-,N/A,,Overcast,0,2012-10-09 15:56:00
12:56 PM,57.0,46.0,67,30.17,10.0,SW,3.5,-,N/A,,Overcast,220,2012-10-09 16:56:00
1:56 PM,59.0,45.0,60,30.13,10.0,East,5.8,-,N/A,,Mostly Cloudy,90,2012-10-09 17:56:00
2:56 PM,59.0,44.1,58,30.13,10.0,Variable,3.5,-,N/A,,Mostly Cloudy,0,2012-10-09 18:56:00
3:56 PM,57.9,44.1,60,30.12,10.0,East,4.6,-,N/A,,Mostly Cloudy,80,2012-10-09 19:56:00
4:45 PM,57.2,46.4,67,30.11,10.0,ESE,5.8,-,N/A,,Overcast,110,2012-10-09 20:45:00
4:56 PM,57.0,46.9,69,30.12,10.0,SE,4.6,-,N/A,,Overcast,140,2012-10-09 20:56:00
5:56 PM,55.9,46.9,72,30.12,10.0,ESE,6.9,-,N/A,,Overcast,120,2012-10-09 21:56:00
6:56 PM,55.0,48.0,77,30.11,10.0,SE,3.5,-,N/A,,Overcast,130,2012-10-09 22:56:00
7:56 PM,55.0,48.0,77,30.11,9.0,SE,3.5,-,N/A,,Overcast,130,2012-10-09 23:56:00
8:56 PM,54.0,48.9,83,30.10,8.0,SE,4.6,-,N/A,,Overcast,130,2012-10-10 00:56:00
9:56 PM,55.0,48.9,80,30.09,10.0,East,3.5,-,N/A,,Overcast,80,2012-10-10 01:56:00
10:56 PM,54.0,50.0,86,30.08,8.0,ESE,3.5,-,N/A,,Overcast,120,2012-10-10 02:56:00
11:56 PM,54.0,50.0,86,30.07,7.0,SE,3.5,-,N/A,,Overcast,130,2012-10-10 03:56:00